Previsão horária em Al-Ladikija

Hoje, 25 Junho, Sexta-feira

Tempo Temperatura Precipitação Vento Pressão Humidade
00:00 +25°C° 0 mm 2 m/s 754 mmHg 72%
01:00 +25°C° 0 mm 2 m/s 754 mmHg 73%
02:00 +24°C° 0 mm 2 m/s 754 mmHg 74%
03:00 +24°C° 0 mm 2 m/s 754 mmHg 75%
04:00 +24°C° 0 mm 2 m/s 754 mmHg 76%
05:00 +24°C° 0 mm 2 m/s 754 mmHg 77%
06:00 +26°C° 0 mm 2 m/s 754 mmHg 69%
07:00 +28°C° 0 mm 3 m/s 754 mmHg 62%
08:00 +30°C° 0 mm 3 m/s 754 mmHg 55%
09:00 +31°C° 0 mm 3 m/s 754 mmHg 52%
10:00 +33°C° 0 mm 3 m/s 754 mmHg 50%
11:00 +34°C° 0 mm 3 m/s 754 mmHg 48%
12:00 +34°C° 0 mm 3 m/s 754 mmHg 47%
13:00 +34°C° 0 mm 3 m/s 754 mmHg 47%
14:00 +34°C° 0 mm 3 m/s 753 mmHg 46%
15:00 +33°C° 0 mm 3 m/s 753 mmHg 48%
16:00 +33°C° 0 mm 3 m/s 753 mmHg 50%
17:00 +31°C° 0 mm 3 m/s 753 mmHg 52%
18:00 +29°C° 0 mm 3 m/s 753 mmHg 60%
19:00 +28°C° 0 mm 2 m/s 753 mmHg 68%
20:00 +26°C° 0 mm 2 m/s 753 mmHg 76%
21:00 +26°C° 0 mm 2 m/s 753 mmHg 76%
22:00 +25°C° 0 mm 2 m/s 753 mmHg 75%
23:00 +25°C° 0 mm 2 m/s 753 mmHg 75%

Amanhã, 26 Junho, Sábado

Tempo Temperatura Precipitação Vento Pressão Humidade
00:00 +25°C° 0 mm 2 m/s 753 mmHg 76%
01:00 +25°C° 0 mm 2 m/s 752 mmHg 77%
02:00 +25°C° 0 mm 2 m/s 752 mmHg 77%
03:00 +25°C° 0 mm 2 m/s 752 mmHg 77%
04:00 +25°C° 0 mm 2 m/s 752 mmHg 76%
05:00 +25°C° 0 mm 2 m/s 752 mmHg 76%
06:00 +27°C° 0 mm 2 m/s 752 mmHg 68%
07:00 +29°C° 0 mm 2 m/s 753 mmHg 61%
08:00 +31°C° 0 mm 2 m/s 753 mmHg 53%
09:00 +33°C° 0 mm 3 m/s 752 mmHg 51%
10:00 +34°C° 0 mm 3 m/s 752 mmHg 48%
11:00 +35°C° 0 mm 3 m/s 752 mmHg 46%
12:00 +35°C° 0 mm 4 m/s 752 mmHg 45%
13:00 +35°C° 0 mm 4 m/s 752 mmHg 45%
14:00 +35°C° 0 mm 4 m/s 751 mmHg 45%
15:00 +34°C° 0 mm 4 m/s 751 mmHg 47%
16:00 +33°C° 0 mm 4 m/s 751 mmHg 49%
17:00 +33°C° 0 mm 4 m/s 751 mmHg 50%
18:00 +30°C° 0 mm 4 m/s 751 mmHg 59%
19:00 +28°C° 0 mm 3 m/s 751 mmHg 68%
20:00 +26°C° 0 mm 3 m/s 752 mmHg 78%
21:00 +26°C° 0 mm 3 m/s 751 mmHg 75%
22:00 +26°C° 0 mm 3 m/s 751 mmHg 72%
23:00 +26°C° 0 mm 3 m/s 751 mmHg 70%

Depois de amanhã, 27 Junho, Domingo

Tempo Temperatura Precipitação Vento Pressão Humidade
00:00 +26°C° 0 mm 3 m/s 751 mmHg 68%
01:00 +26°C° 0 mm 2 m/s 751 mmHg 66%
02:00 +26°C° 0 mm 2 m/s 751 mmHg 65%
03:00 +26°C° 0 mm 2 m/s 751 mmHg 65%
04:00 +26°C° 0 mm 2 m/s 751 mmHg 65%
05:00 +26°C° 0 mm 2 m/s 752 mmHg 65%
06:00 +28°C° 0 mm 2 m/s 752 mmHg 59%
07:00 +30°C° 0 mm 2 m/s 752 mmHg 52%
08:00 +32°C° 0 mm 2 m/s 752 mmHg 46%
09:00 +34°C° 0 mm 3 m/s 752 mmHg 45%
10:00 +35°C° 0 mm 3 m/s 752 mmHg 43%
11:00 +36°C° 0 mm 3 m/s 752 mmHg 42%
12:00 +36°C° 0 mm 3 m/s 752 mmHg 42%
13:00 +36°C° 0 mm 3 m/s 752 mmHg 41%
14:00 +36°C° 0 mm 3 m/s 752 mmHg 41%
15:00 +35°C° 0 mm 3 m/s 752 mmHg 43%
16:00 +35°C° 0 mm 3 m/s 752 mmHg 45%
17:00 +34°C° 0 mm 3 m/s 752 mmHg 47%
18:00 +31°C° 0 mm 3 m/s 752 mmHg 54%
19:00 +30°C° 0 mm 3 m/s 752 mmHg 60%
20:00 +28°C° 0 mm 3 m/s 752 mmHg 67%
21:00 +28°C° 0 mm 2 m/s 752 mmHg 67%
22:00 +27°C° 0 mm 2 m/s 752 mmHg 67%
23:00 +27°C° 0 mm 2 m/s 753 mmHg 67%

28 Junho, Segunda-feira

Tempo Temperatura Precipitação Vento Pressão Humidade
00:00 +27°C° 0 mm 2 m/s 752 mmHg 63%
01:00 +27°C° 0 mm 2 m/s 752 mmHg 60%
02:00 +27°C° 0 mm 2 m/s 752 mmHg 56%
03:00 +27°C° 0 mm 2 m/s 752 mmHg 55%
04:00 +28°C° 0 mm 2 m/s 752 mmHg 54%
05:00 +28°C° 0 mm 2 m/s 752 mmHg 54%
06:00 +29°C° 0 mm 2 m/s 753 mmHg 49%
07:00 +31°C° 0 mm 2 m/s 753 mmHg 45%
08:00 +34°C° 0 mm 2 m/s 753 mmHg 41%
09:00 +35°C° 0 mm 2 m/s 753 mmHg 39%
10:00 +36°C° 0 mm 3 m/s 753 mmHg 38%
11:00 +37°C° 0 mm 3 m/s 753 mmHg 36%
12:00 +37°C° 0 mm 3 m/s 753 mmHg 37%
13:00 +37°C° 0 mm 3 m/s 753 mmHg 37%
14:00 +37°C° 0 mm 4 m/s 753 mmHg 37%
15:00 +36°C° 0 mm 4 m/s 752 mmHg 39%
16:00 +35°C° 0 mm 4 m/s 752 mmHg 40%
17:00 +35°C° 0 mm 5 m/s 752 mmHg 42%
18:00 +33°C° 0 mm 4 m/s 752 mmHg 50%
19:00 +30°C° 0 mm 4 m/s 753 mmHg 58%
20:00 +28°C° 0 mm 3 m/s 753 mmHg 66%
21:00 +28°C° 0 mm 3 m/s 753 mmHg 63%
22:00 +28°C° 0 mm 3 m/s 753 mmHg 60%
23:00 +28°C° 0 mm 3 m/s 753 mmHg 56%

29 Junho, Terça-feira

Tempo Temperatura Precipitação Vento Pressão Humidade
00:00 +28°C° 0 mm 3 m/s 752 mmHg 54%
01:00 +28°C° 0 mm 3 m/s 752 mmHg 52%
02:00 +28°C° 0 mm 2 m/s 752 mmHg 50%
03:00 +28°C° 0 mm 3 m/s 752 mmHg 51%
04:00 +28°C° 0 mm 3 m/s 752 mmHg 51%
05:00 +28°C° 0 mm 3 m/s 752 mmHg 51%
06:00 +30°C° 0 mm 3 m/s 752 mmHg 46%
07:00 +33°C° 0 mm 3 m/s 752 mmHg 42%
08:00 +35°C° 0 mm 3 m/s 752 mmHg 37%
09:00 +35°C° 0 mm 4 m/s 752 mmHg 38%
10:00 +36°C° 0 mm 4 m/s 752 mmHg 38%
11:00 +37°C° 0 mm 4 m/s 752 mmHg 39%
12:00 +37°C° 0 mm 4 m/s 752 mmHg 39%
13:00 +37°C° 0 mm 4 m/s 752 mmHg 39%
14:00 +37°C° 0 mm 5 m/s 752 mmHg 40%
15:00 +36°C° 0 mm 5 m/s 752 mmHg 42%
16:00 +35°C° 0 mm 5 m/s 752 mmHg 44%
17:00 +34°C° 0 mm 5 m/s 752 mmHg 46%
18:00 +33°C° 0 mm 4 m/s 752 mmHg 55%
19:00 +30°C° 0 mm 4 m/s 752 mmHg 64%
20:00 +28°C° 0 mm 3 m/s 752 mmHg 73%
21:00 +28°C° 0 mm 3 m/s 752 mmHg 69%
22:00 +28°C° 0 mm 3 m/s 752 mmHg 65%
23:00 +28°C° 0 mm 3 m/s 752 mmHg 61%

30 Junho, Quarta-feira

Tempo Temperatura Precipitação Vento Pressão Humidade
00:00 +28°C° 0 mm 3 m/s 752 mmHg 60%
01:00 +28°C° 0 mm 2 m/s 752 mmHg 59%
02:00 +27°C° 0 mm 2 m/s 752 mmHg 59%
03:00 +28°C° 0 mm 2 m/s 752 mmHg 59%
04:00 +28°C° 0 mm 2 m/s 752 mmHg 59%
05:00 +28°C° 0 mm 1 m/s 752 mmHg 59%
06:00 +30°C° 0 mm 1 m/s 752 mmHg 52%
07:00 +32°C° 0 mm 2 m/s 753 mmHg 46%
08:00 +35°C° 0 mm 2 m/s 753 mmHg 39%
09:00 +36°C° 0 mm 2 m/s 753 mmHg 38%
10:00 +37°C° 0 mm 2 m/s 753 mmHg 36%
11:00 +38°C° 0 mm 3 m/s 753 mmHg 35%
12:00 +38°C° 0 mm 3 m/s 753 mmHg 35%
13:00 +38°C° 0 mm 3 m/s 752 mmHg 36%
14:00 +38°C° 0 mm 3 m/s 752 mmHg 36%
15:00 +37°C° 0 mm 3 m/s 752 mmHg 38%
16:00 +36°C° 0 mm 3 m/s 752 mmHg 40%
17:00 +35°C° 0 mm 3 m/s 752 mmHg 42%
18:00 +33°C° 0 mm 3 m/s 752 mmHg 50%
19:00 +30°C° 0 mm 3 m/s 753 mmHg 59%
20:00 +28°C° 0 mm 2 m/s 753 mmHg 67%
21:00 +28°C° 0 mm 2 m/s 753 mmHg 67%
22:00 +28°C° 0 mm 2 m/s 753 mmHg 67%
23:00 +27°C° 0 mm 2 m/s 753 mmHg 67%
Mostrar mais